TimeEST,TemperatureF,Dew PointF,Humidity,Sea Level PressureIn,VisibilityMPH,Wind Direction,Wind SpeedMPH,Gust SpeedMPH,PrecipitationIn,Events,Conditions,WindDirDegrees,DateUTC
12:15 AM,53.6,46.4,77,30.04,10.0,SW,5.8,-,0.00,,Clear,230,2013-02-06 05:15:00
12:35 AM,53.6,46.4,77,30.04,10.0,SW,6.9,-,0.00,,Clear,230,2013-02-06 05:35:00
1:15 AM,55.4,46.4,72,30.04,10.0,WSW,5.8,-,0.00,,Partly Cloudy,250,2013-02-06 06:15:00
1:35 AM,55.4,46.4,72,30.04,10.0,West,6.9,-,0.00,,Mostly Cloudy,260,2013-02-06 06:35:00
1:55 AM,55.4,46.4,72,30.04,10.0,West,6.9,-,0.00,,Mostly Cloudy,260,2013-02-06 06:55:00
2:15 AM,55.4,46.4,72,30.04,10.0,WSW,5.8,-,0.00,,Partly Cloudy,250,2013-02-06 07:15:00
2:35 AM,53.6,46.4,77,30.05,10.0,Calm,Calm,-,0.00,,Scattered Clouds,0,2013-02-06 07:35:00
2:55 AM,53.6,46.4,77,30.05,10.0,Calm,Calm,-,0.00,,Overcast,0,2013-02-06 07:55:00
3:15 AM,53.6,46.4,77,30.05,10.0,Calm,Calm,-,0.00,,Overcast,0,2013-02-06 08:15:00
3:35 AM,51.8,46.4,82,30.05,10.0,Calm,Calm,-,0.00,,Partly Cloudy,0,2013-02-06 08:35:00
3:55 AM,53.6,46.4,77,30.05,10.0,West,4.6,-,0.00,,Clear,260,2013-02-06 08:55:00
4:15 AM,53.6,46.4,77,30.05,10.0,Calm,Calm,-,0.00,,Clear,0,2013-02-06 09:15:00
4:35 AM,51.8,46.4,82,30.05,10.0,Calm,Calm,-,0.00,,Clear,0,2013-02-06 09:35:00
4:55 AM,50.0,46.4,87,30.06,10.0,Calm,Calm,-,0.00,,Clear,0,2013-02-06 09:55:00
5:15 AM,50.0,46.4,87,30.06,10.0,Calm,Calm,-,0.00,,Clear,0,2013-02-06 10:15:00
5:35 AM,50.0,46.4,87,30.07,10.0,Calm,Calm,-,0.00,,Clear,0,2013-02-06 10:35:00
5:55 AM,51.8,48.2,88,30.08,10.0,Calm,Calm,-,0.00,,Clear,0,2013-02-06 10:55:00
6:15 AM,50.0,48.2,94,30.08,10.0,Calm,Calm,-,0.00,,Clear,0,2013-02-06 11:15:00
6:35 AM,48.2,46.4,93,30.09,10.0,Calm,Calm,-,0.00,,Clear,0,2013-02-06 11:35:00
6:55 AM,48.2,46.4,93,30.10,7.0,Calm,Calm,-,0.00,,Clear,0,2013-02-06 11:55:00
7:15 AM,48.2,46.4,93,30.10,8.0,Calm,Calm,-,0.00,,Clear,0,2013-02-06 12:15:00
7:35 AM,48.2,46.4,93,30.12,6.0,Calm,Calm,-,0.00,,Clear,0,2013-02-06 12:35:00
7:55 AM,50.0,48.2,94,30.12,10.0,Calm,Calm,-,0.00,,Clear,0,2013-02-06 12:55:00
8:15 AM,51.8,48.2,88,30.13,10.0,Calm,Calm,-,0.00,,Clear,0,2013-02-06 13:15:00
8:35 AM,55.4,50.0,82,30.14,9.0,Calm,Calm,-,0.00,,Clear,0,2013-02-06 13:35:00
8:55 AM,57.2,51.8,82,30.15,10.0,WNW,4.6,-,0.00,,Clear,290,2013-02-06 13:55:00
9:15 AM,59.0,51.8,77,30.15,10.0,NW,6.9,-,0.00,,Clear,310,2013-02-06 14:15:00
9:35 AM,60.8,51.8,72,30.16,10.0,WNW,3.5,-,0.00,,Clear,300,2013-02-06 14:35:00
9:55 AM,62.6,50.0,63,30.16,10.0,Calm,Calm,-,0.00,,Clear,0,2013-02-06 14:55:00
10:15 AM,62.6,50.0,63,30.16,10.0,NNW,4.6,-,0.00,,Clear,340,2013-02-06 15:15:00
10:35 AM,66.2,50.0,56,30.16,10.0,NW,5.8,-,0.00,,Clear,310,2013-02-06 15:35:00
10:55 AM,66.2,48.2,52,30.17,10.0,Calm,Calm,-,0.00,,Clear,0,2013-02-06 15:55:00
11:15 AM,68.0,46.4,46,30.17,10.0,Calm,Calm,-,0.00,,Clear,0,2013-02-06 16:15:00
11:35 AM,66.2,48.2,52,30.16,10.0,Calm,Calm,-,0.00,,Clear,0,2013-02-06 16:35:00
11:55 AM,68.0,48.2,49,30.16,10.0,Calm,Calm,-,0.00,,Clear,0,2013-02-06 16:55:00
12:15 PM,71.6,46.4,41,30.15,10.0,Calm,Calm,-,0.00,,Clear,0,2013-02-06 17:15:00
12:35 PM,68.0,48.2,49,30.14,10.0,South,6.9,-,0.00,,Clear,170,2013-02-06 17:35:00
12:55 PM,68.0,51.8,56,30.14,10.0,SSE,6.9,-,0.00,,Clear,160,2013-02-06 17:55:00
1:15 PM,66.2,51.8,60,30.13,10.0,South,8.1,-,0.00,,Clear,170,2013-02-06 18:15:00
1:35 PM,66.2,51.8,60,30.12,10.0,SSE,8.1,-,0.00,,Clear,150,2013-02-06 18:35:00
1:55 PM,68.0,51.8,56,30.12,10.0,South,9.2,-,0.00,,Clear,170,2013-02-06 18:55:00
2:15 PM,68.0,50.0,52,30.11,10.0,South,11.5,-,0.00,,Clear,170,2013-02-06 19:15:00
2:35 PM,66.2,50.0,56,30.11,10.0,South,11.5,-,0.00,,Clear,180,2013-02-06 19:35:00
2:55 PM,64.4,51.8,64,30.11,10.0,South,11.5,-,0.00,,Clear,170,2013-02-06 19:55:00
3:15 PM,64.4,51.8,64,30.12,10.0,South,11.5,-,0.00,,Clear,170,2013-02-06 20:15:00
3:35 PM,64.4,51.8,64,30.12,10.0,SSE,9.2,-,0.00,,Clear,160,2013-02-06 20:35:00
3:55 PM,64.4,51.8,64,30.12,10.0,SSE,9.2,-,0.00,,Clear,160,2013-02-06 20:55:00
4:35 PM,62.6,51.8,68,30.12,10.0,SE,6.9,-,0.00,,Clear,140,2013-02-06 21:35:00
4:55 PM,62.6,51.8,68,30.12,10.0,SSE,5.8,-,0.00,,Clear,150,2013-02-06 21:55:00
5:15 PM,62.6,51.8,68,30.13,10.0,SE,4.6,-,0.00,,Clear,140,2013-02-06 22:15:00
5:55 PM,59.0,53.6,82,30.13,8.0,Calm,Calm,-,0.00,,Clear,0,2013-02-06 22:55:00
6:15 PM,57.2,53.6,88,30.14,8.0,Calm,Calm,-,0.00,,Clear,0,2013-02-06 23:15:00
6:35 PM,57.2,53.6,88,30.14,8.0,Calm,Calm,-,0.00,,Clear,0,2013-02-06 23:35:00
6:55 PM,55.4,51.8,88,30.15,7.0,East,3.5,-,0.00,,Clear,100,2013-02-06 23:55:00
7:15 PM,55.4,51.8,88,30.15,7.0,Calm,Calm,-,0.00,,Clear,0,2013-02-07 00:15:00
7:35 PM,53.6,51.8,94,30.16,8.0,Calm,Calm,-,0.00,,Clear,0,2013-02-07 00:35:00
7:55 PM,55.4,51.8,88,30.16,8.0,Calm,Calm,-,0.00,,Clear,0,2013-02-07 00:55:00
8:15 PM,55.4,51.8,88,30.17,9.0,Calm,Calm,-,0.00,,Clear,0,2013-02-07 01:15:00
8:35 PM,53.6,50.0,88,30.17,9.0,Calm,Calm,-,0.00,,Clear,0,2013-02-07 01:35:00
8:55 PM,53.6,51.8,94,30.17,6.0,Calm,Calm,-,0.00,,Clear,0,2013-02-07 01:55:00
9:15 PM,53.6,51.8,94,30.16,4.0,Calm,Calm,-,0.00,,Clear,0,2013-02-07 02:15:00
9:35 PM,53.6,51.8,94,30.15,5.0,Calm,Calm,-,0.00,,Clear,0,2013-02-07 02:35:00
9:55 PM,53.6,51.8,94,30.16,7.0,Calm,Calm,-,0.00,,Clear,0,2013-02-07 02:55:00
10:15 PM,51.8,48.2,88,30.18,3.0,Calm,Calm,-,0.00,,Clear,0,2013-02-07 03:15:00
10:35 PM,51.8,48.2,88,30.19,6.0,Calm,Calm,-,0.00,,Clear,0,2013-02-07 03:35:00
10:55 PM,51.8,48.2,88,30.19,8.0,Calm,Calm,-,0.00,,Clear,0,2013-02-07 03:55:00
11:35 PM,51.8,48.2,88,30.19,7.0,Calm,Calm,-,0.00,,Clear,0,2013-02-07 04:35:00
11:55 PM,50.0,46.4,87,30.18,5.0,Calm,Calm,-,0.00,,Clear,0,2013-02-07 04:55:00